{"data":{"norad_id":67417,"intl_designator":"2026-005P","name":"STARLINK-36374","alt_names":[],"object_type":"PAYLOAD","status":"ACTIVE","operator":null,"country":"US","launch_date":"2026-01-12","launch_site_code":"AFETR","launch_vehicle":null,"mission":null,"orbit_class":"UNKNOWN","rcs_meters":null,"size_class":null,"mass_kg":null,"dimensions":null,"purposes":["comms"],"wikipedia_slug":null,"has_3d_model":false,"image_url":null,"decayed_at":null,"tle_current":{"epoch":"2026-05-24T18:55:24.055968Z","epoch_age_seconds":89980,"freshness":"FRESH","line1":"1 67417U 26005P   26144.78847287  .00010013  00000+0  37278-3 0  9990","line2":"2 67417  43.0013 168.3230 0002563 277.6536  82.4025 15.27590926 20338","mean_motion":15.27590926,"eccentricity":0.0002563,"inclination_deg":43.0013,"raan_deg":168.323,"arg_perigee_deg":277.6536,"mean_anomaly_deg":82.4025,"bstar":0.00037278,"rev_number":2033,"period_min":94.266074476538,"perigee_km":481.25786624879,"apogee_km":484.77489347131,"semimajor_km":6861.15337986,"source":"CELESTRAK","updated_at":"2026-05-25T13:38:21.555201Z"}}}